SCP
0 0 0 0 0 0 0 0 0 0 1 1 0 0 0 0 0 0 0 0 0 0 0 0 0 0 0 0 0 0 0 0 0 0 0 0 0 0 0 0 0 0 0
0 0 0 0 0 0 0 0 0 0 1 0 0 0 0 0 0 0 0 0 0 0 0 0 0 0 0 0 0 0 0 0 0 0 0 0 0 0 0 0 0 0 0
0 0 0 -0 0 0 0 0 0 0 0 0 0 0 0 0 0 0 0 0 0 0 0 0 0 0 0 0 0 0 0 0 0 0 0 0 0 0 0 0 0 0 0
0 0 0 0 0 0 0 0 0 0 0 0 0 0 0 0 0 0 0 0 0 0 0 0 0 0 0 0 0 0 0 0 0 0 0 0 0 0 0 0 0 0 0
-0 -0 0 -0 0 0 0 0 0 0 0 0 0 0 -0 0 0 0 0 0 0 0 0 0 0 0 0 0 0 0 0 0 0 0 0 0 0 0 0 0 0 0 0
-0 -0 -0 0 -0 0 0 0 0 0 0 0 0 0 0 0 0 0 0 0 0 0 0 0 0 0 0 0 0 0 0 0 0 0 0 0 0 0 0 0 0 0 0
-0 -0 -0 -0 -0 0 0 0 0 0 0 0 0 0 0 0 0 0 0 0 0 0 0 0 0 0 0 0 0 0 0 0 0 0 0 0 0 0 0 0 0 0 0
-0 -0 0 0 0 0 -0 -0 0 0 0 0 0 0 0 0 0 0 0 0 0 0 0 0 0 0 0 0 0 0 0 0 0 0 0 0 0 0 0 0 0 0 0
0 -0 -0 0 0 0 -0 -0 -0 -0 0 0 0 -0 -0 0 0 0 0 0 0 0 0 0 0 0 0 0 0 0 0 0 0 0 0 0 0 0 0 0 0 0 0
0 -0 -0 0 0 0 0 0 -0 -0 -0 0 0 0 0 0 0 0 0 0 0 0 0 0 0 0 0 0 0 0 0 0 0 0 0 0 0 0 0 0 0 0 0
0 0 -0 -0 -0 0 0 -0 -0 0 0 0 -0 0 0 0 0 0 0 0 0 0 0 0 0 0 0 0 0 0 0 0 0 0 0 0 0 0 0 0 0 0 0
0 0 -0 -0 -0 0 0 0 -0 -0 -0 -0 -0 -0 -0 -0 0 0 0 0 0 0 0 0 0 0 0 0 0 0 0 0 0 0 0 0 0 0 0 0 0 0 0
0 0 0 0 -0 -0 0 0 -0 -0 -0 -0 -0 -0 -0 -0 -0 0 0 0 0 0 0 0 0 0 0 0 0 0 0 0 0 0 0 0 0 0 0 0 0 0 0
-0 -0 0 0 -0 -0 -0 0 -0 -0 -0 -0 -0 -0 -0 -0 -0 -0 0 -0 0 0 0 0 0 0 0 0 0 0 0 0 0 0 0 0 0 0 0 0 0 0 0
-0 -0 -0 -0 0 -0 -0 -0 -0 0 0 -0 -0 -0 -0 -0 -0 -0 -0 -0 -0 -0 0 0 0 0 0 0 0 0 0 0 0 0 0 0 0 0 0 0 0 0 0
-0 -0 -0 -0 -0 0 0 0 0 0 -0 -0 -0 -0 -0 -0 -0 -0 -0 -0 -0 -0 -0 0 0 0 0 0 0 0 0 0 0 0 0 0 0 0 0 0 0 0 0
-0 -0 -0 0 0 0 0 0 0 -0 -0 -0 -0 -0 -0 -0 -0 -0 -0 -0 0 0 0 0 0 0 0 0 0 0 0 0 0 0 0 0 0 0 0 0 0 0 0
-0 -0 -0 0 0 0 0 -0 -0 -0 -0 -0 -0 -0 -0 -0 -0 -0 -0 0 0 0 0 0 0 0 0 0 0 0 0 0 0 0 0 0 0 0 0 0 0 0 0
-0 -0 -0 -0 -0 0 0 -0 -0 -0 -0 -0 -0 -0 -0 -0 -0 -0 0 0 0 0 0 0 0 0 0 0 0 0 0 0 0 0 0 0 0 0 0 0 0 0 0
-0 -0 -0 -0 -0 -0 -0 -0 -0 -0 -0 -0 0 0 0 0 0 0 0 0 0 0 0 0 0 0 0 0 0 0 0 0 0 0 0 0 0 0 0 0 0 0 0
-0 -0 -0 -0 -0 -0 -0 -0 -0 -0 -0 0 0 0 0 0 0 0 0 0 0 0 0 0 0 0 0 0 0 0 0 0 0 0 0 0 0 0 0 0 0 0 0
-0 -0 -0 -0 -0 -0 -0 -0 -0 -0 -0 0 0 0 0 0 0 0 0 0 0 0 0 0 0 0 0 0 0 0 0 0 0 0 0 0 0 0 0 0 0 0 0
-0 -0 -0 -0 -0 -0 -0 -0 -0 -0 -0 -0 0 0 0 0 0 0 0 0 0 0 0 0 0 0 0 0 0 0 0 0 0 0 0 0 0 0 0 0 0 0 0
-0 -0 -0 -0 -0 -0 -0 -0 -0 -0 -0 -0 0 0 0 0 0 0 0 0 0 0 0 0 0 0 0 0 0 0 0 0 0 0 0 0 0 0 0 0 0 0 0
-0 -0 -0 -0 -0 -0 -0 -0 -0 -0 -0 -0 -0 0 0 0 0 0 0 0 0 0 0 0 0 0 0 0 0 0 0 0 0 0 0 0 0 0 0 0 0 0 0
-0 -0 -0 -0 -0 -0 -0 -0 -0 -0 -0 -0 -0 0 0 0 0 0 0 0 0 0 0 0 0 0 0 0 0 0 0 0 0 0 0 0 0 0 0 0 0 0 0
Wind_Speed_500mb
45 42 40 39 33 33 35 45 45 39 47 48 30 26 19 31 49 63 65 77 71 60 64 56 51 58 58 55 45 42 41 37 33 33 26 21 19 19 19 18 16 16 14
44 36 29 22 19 21 23 30 37 38 53 47 30 23 19 32 37 61 66 71 70 65 63 54 53 63 59 55 49 50 42 35 37 34 26 19 15 18 19 18 17 14 14
35 36 23 14 8 7 13 19 24 43 54 43 35 28 22 37 48 52 69 69 69 64 61 52 50 64 62 55 51 54 47 44 38 34 15 16 15 25 22 21 19 19 21
35 30 20 16 10 18 19 23 23 29 43 34 33 24 18 44 53 62 74 68 58 58 62 50 57 64 59 54 49 50 50 44 45 37 26 14 14 19 14 23 24 27 21
29 29 25 25 25 24 24 20 15 22 22 23 28 29 23 10 48 48 52 46 52 55 65 54 62 66 58 50 50 49 46 41 36 40 33 22 17 13 12 16 25 33 31
21 24 20 27 30 23 21 18 14 19 17 17 17 21 27 36 40 44 45 37 41 42 50 62 59 57 52 48 49 48 44 41 38 33 28 26 21 18 16 15 18 19 30
16 17 21 24 25 26 22 17 13 15 16 10 19 15 20 29 36 40 48 49 38 34 37 67 71 62 51 47 46 46 45 41 39 34 30 32 32 19 21 20 16 18 19
12 15 15 17 22 23 23 21 22 22 19 20 19 18 19 20 42 38 39 41 34 34 40 64 58 53 51 45 40 43 47 47 38 37 33 28 32 32 22 21 17 10 17
8 10 11 12 13 14 16 15 21 22 20 18 19 16 17 26 33 30 30 31 23 32 52 66 64 62 52 44 38 39 45 49 48 45 41 44 41 35 28 24 18 26 32
11 10 9 11 11 12 10 10 12 17 24 26 24 23 22 19 23 26 33 28 27 25 38 41 43 51 55 50 36 36 42 44 43 41 39 40 38 31 32 43 45 43 49
14 14 13 11 10 8 7 10 11 17 23 26 32 35 29 24 24 25 25 24 23 22 20 26 37 42 47 45 34 28 31 30 30 31 35 37 41 48 47 42 48 50 40
16 19 16 12 10 11 13 13 16 18 25 26 28 29 35 35 37 34 34 31 31 29 23 22 21 26 31 38 44 41 38 38 37 37 43 47 43 41 45 46 44 23 19
21 21 21 20 18 18 19 22 24 23 23 26 30 29 26 24 25 26 27 28 24 22 22 21 25 26 25 25 27 27 30 36 38 36 35 38 39 36 26 17 18 20 18
25 28 28 28 24 24 24 27 28 27 26 26 26 26 25 23 26 27 30 30 26 24 23 22 22 25 26 27 28 28 29 30 33 35 33 25 20 17 17 17 18 19 20
31 34 36 32 25 26 29 31 32 32 33 34 33 32 30 28 27 29 29 28 26 24 22 19 19 16 17 17 17 18 19 20 19 19 19 18 18 20 21 19 19 21 25
40 37 35 34 28 27 30 29 30 29 26 25 31 34 35 36 35 34 33 32 33 29 24 22 21 22 19 17 18 17 17 17 17 18 18 19 19 19 18 20 22 21 20
52 44 42 38 35 31 27 29 35 36 36 35 36 37 36 33 32 31 31 31 29 27 23 22 21 20 20 19 16 16 17 16 16 18 17 17 17 19 14 17 17 21 22
62 55 50 48 42 37 33 32 38 41 42 40 38 36 33 30 29 29 28 26 25 24 23 21 18 16 15 14 13 13 11 15 18 19 21 20 22 25 22 17 15 13 11
64 62 58 60 53 48 44 42 44 42 39 36 35 33 30 28 28 27 26 25 24 22 20 18 15 11 11 10 8 8 11 13 14 16 17 19 20 24 23 16 12 9 8
60 60 59 57 61 57 52 51 52 49 45 41 38 35 33 29 29 27 27 27 25 23 21 18 15 11 8 8 8 7 7 8 9 12 15 18 18 17 13 10 13 12 17
64 60 61 62 60 62 59 58 56 53 47 43 40 36 33 31 30 31 30 28 27 24 22 19 15 12 8 7 4 3 3 3 4 5 4 6 13 10 9 12 14 15 20
69 69 66 64 62 64 64 62 59 52 50 45 42 39 36 34 32 30 29 27 24 21 18 15 13 11 8 4 2 3 5 5 2 5 5 5 14 15 17 15 18 18 19
74 74 71 65 66 67 67 65 62 61 56 51 47 42 37 33 30 30 29 29 27 24 22 20 18 16 14 11 10 9 8 9 3 7 9 7 15 20 23 25 24 27 21
75 77 73 71 73 71 68 63 63 62 59 55 52 48 44 40 36 33 32 31 29 28 26 25 22 18 15 14 13 13 13 12 7 11 13 13 14 15 13 10 24 23 16
71 76 79 77 74 71 69 67 66 66 63 59 56 53 49 45 42 38 34 32 28 26 23 23 22 19 18 16 15 15 14 12 14 12 11 11 9 7 9 12 17 17 14
70 74 74 72 70 68 69 70 69 68 67 64 62 60 56 52 48 43 38 36 33 29 27 24 21 19 18 16 16 17 18 18 17 8 11 12 12 12 13 13 16 17 17
Wind_Direction_500mb
314 310 299 286 275 263 252 238 235 226 207 211 200 228 221 206 203 191 184 185 179 195 204 201 193 189 183 178 172 170 162 156 156 148 143 143 155 165 164 163 162 166 162
330 330 321 305 277 260 244 233 227 210 204 206 200 230 219 196 195 188 181 179 181 190 206 202 199 190 183 182 182 180 166 165 164 161 152 162 180 190 192 185 185 186 188
340 343 346 342 319 261 235 214 213 190 201 205 206 228 246 208 200 193 180 183 184 188 202 202 201 190 188 189 190 189 185 178 174 177 164 169 204 187 205 202 203 201 207
0 3 26 46 75 81 106 132 164 178 200 209 210 241 228 200 198 199 183 181 188 193 198 197 195 191 190 193 196 198 198 196 194 185 193 179 176 188 191 210 216 217 219
7 17 25 50 69 79 99 125 156 183 192 216 218 230 216 186 169 166 170 187 199 202 201 192 191 193 195 199 203 202 196 201 198 199 203 203 199 186 199 206 211 228 233
19 22 38 54 64 79 90 106 130 162 194 205 208 238 233 218 183 172 171 187 203 200 200 189 194 199 205 208 208 206 202 202 204 206 210 216 211 219 213 195 179 213 238
35 38 37 58 65 79 91 99 119 141 157 192 174 208 229 220 189 182 186 191 193 188 204 194 192 193 208 208 207 210 208 205 208 213 219 228 229 226 223 210 211 223 215
69 65 71 58 68 68 72 94 110 124 135 155 172 184 210 187 188 181 186 188 215 225 202 194 192 201 210 212 213 212 215 216 213 222 221 222 225 229 214 192 192 201 238
92 81 83 91 91 100 96 86 95 102 121 138 154 143 144 152 158 172 190 177 186 199 186 193 199 201 210 211 216 222 225 224 226 232 235 236 235 224 215 218 244 270 270
147 128 116 115 114 124 125 115 98 117 112 125 140 150 158 171 155 159 163 176 182 193 196 198 213 212 209 206 206 222 228 228 231 234 233 224 215 216 252 269 276 287 285
159 145 145 140 142 145 145 129 131 119 116 121 129 127 125 136 143 156 161 165 170 164 182 206 218 212 212 199 195 197 207 210 205 205 207 216 247 262 262 275 284 279 270
174 166 164 159 156 152 137 130 129 125 129 134 129 123 128 139 143 146 153 154 159 158 165 172 176 185 199 210 215 221 226 232 235 226 238 253 248 260 272 276 277 252 238
180 171 163 158 148 138 135 135 129 130 126 132 135 132 141 149 156 154 154 151 151 143 148 152 154 161 173 178 186 193 208 224 232 233 241 249 259 263 257 237 232 235 236
177 172 165 157 152 142 139 140 136 132 134 137 143 147 146 141 133 131 132 133 131 139 142 150 165 174 183 189 197 209 219 223 233 244 242 229 215 215 223 227 238 246 250
182 175 170 165 167 156 147 140 136 135 135 134 137 136 135 141 145 142 141 138 137 136 138 145 147 155 166 168 173 182 187 191 190 196 200 192 198 206 218 226 237 252 268
189 184 180 173 164 160 161 159 155 151 152 152 146 145 147 150 149 141 137 136 137 136 140 139 144 151 155 152 161 166 175 184 189 201 204 209 212 216 226 240 254 262 267
188 188 189 183 174 170 167 161 159 155 152 152 149 148 149 148 143 138 137 138 138 139 144 149 150 154 155 153 162 173 178 186 193 204 216 223 237 243 256 262 274 276 276
185 189 188 189 185 181 176 174 162 156 152 152 151 151 153 152 143 139 142 141 140 144 155 165 172 180 173 177 188 199 204 215 221 226 228 234 239 244 246 247 258 257 275
187 185 187 190 189 189 190 180 173 168 164 163 162 160 158 156 155 158 158 155 156 160 164 169 167 164 164 160 168 184 200 210 219 227 232 236 241 252 251 243 233 231 230
185 182 183 186 192 191 191 186 183 180 178 178 175 171 167 167 166 165 165 164 164 168 168 165 159 155 153 155 167 188 208 222 241 251 253 241 230 236 242 217 239 248 254
183 181 182 185 187 193 189 190 189 187 184 183 179 176 173 172 174 173 172 174 173 172 171 168 164 159 159 158 164 182 179 197 199 193 212 230 218 213 232 231 239 233 249
182 185 184 187 186 192 192 193 194 189 189 188 186 184 184 183 181 180 179 179 180 179 179 179 179 182 188 228 261 248 261 301 231 210 232 235 216 220 224 235 258 250 262
185 188 189 186 192 195 196 196 194 195 193 193 193 192 192 190 190 191 192 191 191 193 193 194 198 202 205 218 235 256 274 299 261 272 275 257 255 252 248 241 245 260 265
186 187 188 193 196 198 198 200 198 197 198 197 197 197 197 196 196 197 200 205 205 204 204 204 205 211 217 227 237 254 275 281 267 280 279 290 285 285 251 220 230 242 260
187 190 194 198 199 200 200 200 203 201 201 202 202 203 204 204 204 205 208 208 211 214 216 215 217 220 226 235 247 256 262 255 253 273 279 281 275 273 228 214 228 237 246
192 195 199 201 202 203 203 204 206 205 206 204 206 208 207 206 208 209 210 211 211 213 215 216 222 229 237 248 253 260 263 269 266 258 236 242 260 269 249 247 256 262 263
Wind_Speed_850mb
45 42 40 39 33 33 35 45 45 39 47 48 30 26 19 31 49 63 65 77 71 60 64 56 51 58 58 55 45 42 41 37 33 33 26 21 19 19 19 18 16 16 14
44 36 29 22 19 21 23 30 37 38 53 47 30 23 19 32 37 61 66 71 70 65 63 54 53 63 59 55 49 50 42 35 37 34 26 19 15 18 19 18 17 14 14
35 36 23 14 8 7 13 19 24 43 54 43 35 28 22 37 48 52 69 69 69 64 61 52 50 64 62 55 51 54 47 44 38 34 15 16 15 25 22 21 19 19 21
35 30 20 16 10 18 19 23 23 29 43 34 33 24 18 44 53 62 74 68 58 58 62 50 57 64 59 54 49 50 50 44 45 37 26 14 14 19 14 23 24 27 21
29 29 25 25 25 24 24 20 15 22 22 23 28 29 23 10 48 48 52 46 52 55 65 54 62 66 58 50 50 49 46 41 36 40 33 22 17 13 12 16 25 33 31
21 24 20 27 30 23 21 18 14 19 17 17 17 21 27 36 40 44 45 37 41 42 50 62 59 57 52 48 49 48 44 41 38 33 28 26 21 18 16 15 18 19 30
16 17 21 24 25 26 22 17 13 15 16 10 19 15 20 29 36 40 48 49 38 34 37 67 71 62 51 47 46 46 45 41 39 34 30 32 32 19 21 20 16 18 19
12 15 15 17 22 23 23 21 22 22 19 20 19 18 19 20 42 38 39 41 34 34 40 64 58 53 51 45 40 43 47 47 38 37 33 28 32 32 22 21 17 10 17
8 10 11 12 13 14 16 15 21 22 20 18 19 16 17 26 33 30 30 31 23 32 52 66 64 62 52 44 38 39 45 49 48 45 41 44 41 35 28 24 18 26 32
11 10 9 11 11 12 10 10 12 17 24 26 24 23 22 19 23 26 33 28 27 25 38 41 43 51 55 50 36 36 42 44 43 41 39 40 38 31 32 43 45 43 49
14 14 13 11 10 8 7 10 11 17 23 26 32 35 29 24 24 25 25 24 23 22 20 26 37 42 47 45 34 28 31 30 30 31 35 37 41 48 47 42 48 50 40
16 19 16 12 10 11 13 13 16 18 25 26 28 29 35 35 37 34 34 31 31 29 23 22 21 26 31 38 44 41 38 38 37 37 43 47 43 41 45 46 44 23 19
21 21 21 20 18 18 19 22 24 23 23 26 30 29 26 24 25 26 27 28 24 22 22 21 25 26 25 25 27 27 30 36 38 36 35 38 39 36 26 17 18 20 18
25 28 28 28 24 24 24 27 28 27 26 26 26 26 25 23 26 27 30 30 26 24 23 22 22 25 26 27 28 28 29 30 33 35 33 25 20 17 17 17 18 19 20
31 34 36 32 25 26 29 31 32 32 33 34 33 32 30 28 27 29 29 28 26 24 22 19 19 16 17 17 17 18 19 20 19 19 19 18 18 20 21 19 19 21 25
40 37 35 34 28 27 30 29 30 29 26 25 31 34 35 36 35 34 33 32 33 29 24 22 21 22 19 17 18 17 17 17 17 18 18 19 19 19 18 20 22 21 20
52 44 42 38 35 31 27 29 35 36 36 35 36 37 36 33 32 31 31 31 29 27 23 22 21 20 20 19 16 16 17 16 16 18 17 17 17 19 14 17 17 21 22
62 55 50 48 42 37 33 32 38 41 42 40 38 36 33 30 29 29 28 26 25 24 23 21 18 16 15 14 13 13 11 15 18 19 21 20 22 25 22 17 15 13 11
64 62 58 60 53 48 44 42 44 42 39 36 35 33 30 28 28 27 26 25 24 22 20 18 15 11 11 10 8 8 11 13 14 16 17 19 20 24 23 16 12 9 8
60 60 59 57 61 57 52 51 52 49 45 41 38 35 33 29 29 27 27 27 25 23 21 18 15 11 8 8 8 7 7 8 9 12 15 18 18 17 13 10 13 12 17
64 60 61 62 60 62 59 58 56 53 47 43 40 36 33 31 30 31 30 28 27 24 22 19 15 12 8 7 4 3 3 3 4 5 4 6 13 10 9 12 14 15 20
69 69 66 64 62 64 64 62 59 52 50 45 42 39 36 34 32 30 29 27 24 21 18 15 13 11 8 4 2 3 5 5 2 5 5 5 14 15 17 15 18 18 19
74 74 71 65 66 67 67 65 62 61 56 51 47 42 37 33 30 30 29 29 27 24 22 20 18 16 14 11 10 9 8 9 3 7 9 7 15 20 23 25 24 27 21
75 77 73 71 73 71 68 63 63 62 59 55 52 48 44 40 36 33 32 31 29 28 26 25 22 18 15 14 13 13 13 12 7 11 13 13 14 15 13 10 24 23 16
71 76 79 77 74 71 69 67 66 66 63 59 56 53 49 45 42 38 34 32 28 26 23 23 22 19 18 16 15 15 14 12 14 12 11 11 9 7 9 12 17 17 14
70 74 74 72 70 68 69 70 69 68 67 64 62 60 56 52 48 43 38 36 33 29 27 24 21 19 18 16 16 17 18 18 17 8 11 12 12 12 13 13 16 17 17
Wind_Direction_850mb
314 310 299 286 275 263 252 238 235 226 207 211 200 228 221 206 203 191 184 185 179 195 204 201 193 189 183 178 172 170 162 156 156 148 143 143 155 165 164 163 162 166 162
330 330 321 305 277 260 244 233 227 210 204 206 200 230 219 196 195 188 181 179 181 190 206 202 199 190 183 182 182 180 166 165 164 161 152 162 180 190 192 185 185 186 188
340 343 346 342 319 261 235 214 213 190 201 205 206 228 246 208 200 193 180 183 184 188 202 202 201 190 188 189 190 189 185 178 174 177 164 169 204 187 205 202 203 201 207
0 3 26 46 75 81 106 132 164 178 200 209 210 241 228 200 198 199 183 181 188 193 198 197 195 191 190 193 196 198 198 196 194 185 193 179 176 188 191 210 216 217 219
7 17 25 50 69 79 99 125 156 183 192 216 218 230 216 186 169 166 170 187 199 202 201 192 191 193 195 199 203 202 196 201 198 199 203 203 199 186 199 206 211 228 233
19 22 38 54 64 79 90 106 130 162 194 205 208 238 233 218 183 172 171 187 203 200 200 189 194 199 205 208 208 206 202 202 204 206 210 216 211 219 213 195 179 213 238
35 38 37 58 65 79 91 99 119 141 157 192 174 208 229 220 189 182 186 191 193 188 204 194 192 193 208 208 207 210 208 205 208 213 219 228 229 226 223 210 211 223 215
69 65 71 58 68 68 72 94 110 124 135 155 172 184 210 187 188 181 186 188 215 225 202 194 192 201 210 212 213 212 215 216 213 222 221 222 225 229 214 192 192 201 238
92 81 83 91 91 100 96 86 95 102 121 138 154 143 144 152 158 172 190 177 186 199 186 193 199 201 210 211 216 222 225 224 226 232 235 236 235 224 215 218 244 270 270
147 128 116 115 114 124 125 115 98 117 112 125 140 150 158 171 155 159 163 176 182 193 196 198 213 212 209 206 206 222 228 228 231 234 233 224 215 216 252 269 276 287 285
159 145 145 140 142 145 145 129 131 119 116 121 129 127 125 136 143 156 161 165 170 164 182 206 218 212 212 199 195 197 207 210 205 205 207 216 247 262 262 275 284 279 270
174 166 164 159 156 152 137 130 129 125 129 134 129 123 128 139 143 146 153 154 159 158 165 172 176 185 199 210 215 221 226 232 235 226 238 253 248 260 272 276 277 252 238
180 171 163 158 148 138 135 135 129 130 126 132 135 132 141 149 156 154 154 151 151 143 148 152 154 161 173 178 186 193 208 224 232 233 241 249 259 263 257 237 232 235 236
177 172 165 157 152 142 139 140 136 132 134 137 143 147 146 141 133 131 132 133 131 139 142 150 165 174 183 189 197 209 219 223 233 244 242 229 215 215 223 227 238 246 250
182 175 170 165 167 156 147 140 136 135 135 134 137 136 135 141 145 142 141 138 137 136 138 145 147 155 166 168 173 182 187 191 190 196 200 192 198 206 218 226 237 252 268
189 184 180 173 164 160 161 159 155 151 152 152 146 145 147 150 149 141 137 136 137 136 140 139 144 151 155 152 161 166 175 184 189 201 204 209 212 216 226 240 254 262 267
188 188 189 183 174 170 167 161 159 155 152 152 149 148 149 148 143 138 137 138 138 139 144 149 150 154 155 153 162 173 178 186 193 204 216 223 237 243 256 262 274 276 276
185 189 188 189 185 181 176 174 162 156 152 152 151 151 153 152 143 139 142 141 140 144 155 165 172 180 173 177 188 199 204 215 221 226 228 234 239 244 246 247 258 257 275
187 185 187 190 189 189 190 180 173 168 164 163 162 160 158 156 155 158 158 155 156 160 164 169 167 164 164 160 168 184 200 210 219 227 232 236 241 252 251 243 233 231 230
185 182 183 186 192 191 191 186 183 180 178 178 175 171 167 167 166 165 165 164 164 168 168 165 159 155 153 155 167 188 208 222 241 251 253 241 230 236 242 217 239 248 254
183 181 182 185 187 193 189 190 189 187 184 183 179 176 173 172 174 173 172 174 173 172 171 168 164 159 159 158 164 182 179 197 199 193 212 230 218 213 232 231 239 233 249
182 185 184 187 186 192 192 193 194 189 189 188 186 184 184 183 181 180 179 179 180 179 179 179 179 182 188 228 261 248 261 301 231 210 232 235 216 220 224 235 258 250 262
185 188 189 186 192 195 196 196 194 195 193 193 193 192 192 190 190 191 192 191 191 193 193 194 198 202 205 218 235 256 274 299 261 272 275 257 255 252 248 241 245 260 265
186 187 188 193 196 198 198 200 198 197 198 197 197 197 197 196 196 197 200 205 205 204 204 204 205 211 217 227 237 254 275 281 267 280 279 290 285 285 251 220 230 242 260
187 190 194 198 199 200 200 200 203 201 201 202 202 203 204 204 204 205 208 208 211 214 216 215 217 220 226 235 247 256 262 255 253 273 279 281 275 273 228 214 228 237 246
192 195 199 201 202 203 203 204 206 205 206 204 206 208 207 206 208 209 210 211 211 213 215 216 222 229 237 248 253 260 263 269 266 258 236 242 260 269 249 247 256 262 263